Regional Weather Roundup
Issued by NWS Goodland, KS

Home | Current Version | Previous Version | Text Only | Print | Product List | Glossary Off
Versions: 1 2 3 4 5 6 7 8 9 10 11 12 13 14 15 16 17 18 19 20 21 22 23 24 25 26 27 28 29 30 31 32 33 34 35 36 37 38 39 40 41 42 43 44 45 46 47 48 49 50

000
ASUS43 KGLD 300508
RWRGLD

GOODLAND FORECAST AREA HOURLY WEATHER ROUNDUP
NATIONAL WEATHER SERVICE GOODLAND KS
1100 PM MDT FRI MAY 29 2015

...OFFICIAL OBSERVATIONS...

CITY           SKY/WX    TMP DP  RH WIND       PRES   REMARKS
GOODLAND KS    CLOUDY    51  48  89 N13       30.27R
HILL CITY KS   CLOUDY    54  49  83 N14G22    30.21R
IMPERIAL NEB   CLOUDY    50  44  80 N16G23    30.27S
MCCOOK NEB     CLOUDY    51  45  79 N16       30.25R
AKRON CO       CLOUDY    48  45  89 N10       30.31S
BURLINGTON CO  CLOUDY    51  47  86 N10       30.28R
LIMON CO       CLOUDY    47  42  83 N14       30.34R
$$

...UNOFFICIAL OBSERVATIONS...

CITY           SKY/WX    TMP DP  RH WIND       PRES   REMARKS
COLBY KS       CLOUDY    52  48  87 N16G22    30.26R
GOVE KS          N/A     54  32  43 MISG        N/A
NORTON KS      CLOUDY    54  46  76 N13G25    30.22R
SHARON SPRINGS   N/A     53  49  88 MISG        N/A
KIT CARSON CO    N/A     52  45  78 MISG        N/A
$$



USA.gov is the U.S. government's official web portal to all federal, state and local government web resources and services.